Regional Weather Roundup
Issued by NWS New Orleans/Baton Rouge, LA

Home | Current Version | Previous Version | Graphics & Text | Print | Product List | Glossary On
Versions: 1 2 3 4 5 6 7 8 9 10 11 12 13 14 15 16 17 18 19 20 21 22 23 24 25 26 27 28 29 30 31 32 33 34 35 36 37 38 39 40 41 42 43 44 45 46 47 48 49 50
179
ASUS44 KLIX 301101
RWRLIX
NEW ORLEANS REGIONAL WEATHER ROUNDUP
NATIONAL WEATHER SERVICE NEW ORLEANS LA
600 AM CDT WED JUL 30 2014

NOTE: "FAIR" INDICATES FEW OR NO CLOUDS BELOW 12,000 FEET WITH NO
      SIGNIFICANT WEATHER AND/OR OBSTRUCTIONS TO VISIBILITY.
      SKY/WX - SKY CONDITION AND SIGNIFICANT WEATHER.
      TMP - AIR TEMPERATURE.     DP    - DEWPOINT TEMPERATURE.
      RH  - RELATIVE HUMIDITY.   PRES  - PRESSURE.
      HI  - HEAT INDEX.          WCI   - WIND CHILL INDEX.

*  THESE STATIONS ARE NOT NWS OR FAA STATIONS AND ARE NOT UNDER
   NWS QUALITY CONTROL.

LAZ038-040-048-061>063-065>067-069-301200-
SOUTHEAST LOUISIANA

CITY           SKY/WX    TMP DP  RH WIND       PRES   REMARKS
N.O. AUDUBON   NOT AVBL
N.O. INTL ARPT PTCLDY    75  63  66 NE9       30.05R
N.O. LAKEFRONT CLEAR     76  62  62 NE16      30.06R
N.O. DOWNTOWN*   N/A     75  59  57 NE8       30.06R
SLIDELL        CLEAR     66  63  90 N3        30.05R
BATON ROUGE    PTCLDY    67  63  87 CALM      30.07R
BOOTHVILLE     CLEAR     79  69  71 NE8       30.04R
BELLE CHASSE   CLEAR     72  63  73 N3        30.05R
BOGALUSA*        N/A     64  61  87 CALM      30.08R
GALLIANO*      NOT AVBL
NEW ROADS*       N/A     68  62  79 CALM      30.07S
GONZALES*        N/A     69  67  92 CALM      30.06R
HAMMOND*       CLEAR     66  61  82 CALM      30.08R
HOUMA*         CLEAR     72  65  80 N3        30.05R
PORT FOURCHON* SUNNY     81  72  74 NE8       30.05S

$$

MSZ070-080>082-301200-
SOUTHERN MISSISSIPPI

CITY           SKY/WX    TMP DP  RH WIND       PRES   REMARKS
MCCOMB         CLEAR     65  59  81 N5        30.08R HAZE
GULFPORT       CLEAR     71  61  70 NE3       30.05R
BILOXI         CLEAR     70  61  74 NE6       30.05R
PASCAGOULA     CLEAR     66  61  84 N5        30.04R

$$

COASTAL OBSERVATIONS
LAKE AND NEARSHORE STATIONS

STATION/POSITION TIME  TEMP    WIND        PRES    WAVE
                       AIR SEA DIR/SP/G            HT/PER
                 (UTC) (F)     (DEG/KT/KT) (MB)    (FT/S)
PASCAGOULA       1000   71      10/  8/ 12 1016.5
WAVELAND YACHT   1000   72      30/  9/ 13 1016.8
GRAND ISLE       1000   80 86   50/  9/ 13 1017.5
SOUTHWEST PASS   1000   83 84   30/ 10/ 11 1016.9
NEW CANAL        1000   77 82   60/ 13/ 17 1017.7
SHELL BEACH      1000   78 80   40/ 14/ 16 1017.0

OFFSHORE STATIONS

STATION/POSITION TIME  TEMP    WIND        PRES    WAVE
                       AIR SEA DIR/SP/G            HT/PER
                 (UTC) (F)     (DEG/KT/KT) (MB)    (FT/S)
64 S DAUPHIN ISL 1049   83 85  330/  8/ 17 1016.0

$$




USA.gov is the U.S. government's official web portal to all federal, state and local government web resources and services.